Temperature
16 16 17 17 13 11 13 14 14 14 14 14 14 13 12 12 13 12 11 11 11 12 12 12 12 13 13 13 13 13 14 14 14 14 14 14 14 14 14 14 14 14 14 14 14 14 14 14 14
16 16 16 16 12 12 13 13 14 14 14 14 13 12 12 11 11 11 10 11 11 12 12 12 12 12 13 13 13 13 13 13 13 13 14 14 14 14 14 14 14 14 14 14 14 14 14 14 14
15 16 16 11 12 12 14 13 12 13 14 14 12 11 11 10 10 10 10 10 11 11 11 12 12 12 12 12 12 13 13 13 13 13 13 13 14 14 14 14 14 14 14 14 14 14 14 14 14
15 15 14 11 12 12 13 13 12 12 13 13 11 10 10 10 10 10 10 10 11 11 11 11 12 12 12 12 12 12 12 13 13 13 13 13 13 13 13 13 13 13 13 14 14 14 14 14 14
15 15 11 11 12 12 12 12 12 11 11 11 11 9 9 9 9 9 10 10 10 11 11 11 11 11 11 12 12 12 12 12 12 12 12 13 13 13 13 13 13 13 13 13 13 13 13 13 13
14 11 10 11 12 12 11 12 12 11 11 10 10 8 8 9 9 9 9 9 10 10 10 10 11 11 11 11 11 11 11 12 12 12 12 12 12 13 13 13 13 12 13 13 13 13 13 13 13
13 9 10 11 11 11 11 12 11 10 10 10 10 8 8 8 9 9 9 9 9 9 10 10 10 10 10 11 11 11 11 11 11 12 12 12 12 12 12 12 12 12 12 12 12 13 13 12 12
13 9 11 10 11 11 11 11 11 11 10 10 10 8 7 8 8 8 9 9 9 9 9 9 9 9 10 10 10 10 10 11 11 11 11 12 12 12 12 12 12 12 12 12 12 12 12 12 12
13 8 9 10 10 10 10 10 10 10 10 9 9 9 9 8 8 8 8 8 8 9 8 9 9 9 9 9 9 10 10 10 10 11 11 11 11 12 12 12 12 12 12 12 12 12 12 12 12
11 8 9 10 10 9 9 10 10 9 8 8 8 8 8 8 8 8 8 8 8 8 8 8 8 8 9 9 9 9 9 9 10 10 10 11 11 11 11 11 11 11 11 12 12 12 12 12 12
9 8 9 9 10 10 9 9 9 8 7 8 8 8 8 8 7 7 7 7 7 7 7 7 8 8 8 8 8 8 8 9 9 9 10 10 10 10 11 11 11 11 11 11 11 11 11 11 11
8 8 9 9 9 9 9 9 8 8 9 9 9 8 8 7 7 7 7 7 7 7 7 7 7 7 7 8 8 8 8 8 8 9 9 9 10 10 10 10 10 10 11 11 11 11 11 11 11
8 8 8 9 9 9 8 8 8 8 8 8 8 8 7 7 7 7 7 6 6 6 6 6 7 7 7 7 7 7 7 8 8 8 8 9 9 9 9 10 10 10 10 10 10 10 10 11 10
8 8 8 8 8 8 7 7 7 7 8 8 8 7 7 7 6 6 6 6 6 6 6 6 6 6 6 6 7 7 7 7 7 7 8 8 8 9 9 9 9 9 10 10 10 10 10 10 10
8 7 7 7 7 7 7 6 6 8 8 7 7 7 6 6 6 6 6 6 5 5 5 5 5 5 6 6 6 6 6 6 7 7 7 7 8 8 8 8 9 9 9 9 9 9 9 9 10
7 6 6 7 7 7 7 6 7 8 7 6 7 6 6 6 6 6 5 5 5 5 5 4 4 5 5 5 5 5 6 6 6 6 6 7 7 7 7 8 8 8 8 9 9 9 9 9 9
5 5 6 7 6 6 6 5 6 7 6 6 6 6 6 5 5 5 5 5 5 4 4 4 4 4 4 4 5 5 5 5 5 6 6 6 6 7 7 7 7 8 8 8 8 8 8 8 8
6 5 6 6 6 5 4 4 5 6 6 5 5 5 5 5 5 5 4 4 4 4 4 3 3 3 3 4 4 4 4 5 5 5 5 5 6 6 6 6 7 7 7 7 7 8 8 8 8
6 6 5 6 5 5 4 4 4 5 4 4 4 4 4 4 4 4 4 4 3 3 3 3 3 3 3 3 3 3 4 4 4 4 5 5 5 5 6 6 6 7 7 7 7 7 7 7 7
6 5 5 5 5 5 3 3 4 4 4 4 4 4 4 3 3 3 3 3 3 3 3 2 2 2 2 3 3 3 3 3 3 4 4 4 4 5 5 5 6 6 6 6 6 6 6 7 7
5 5 5 5 4 4 3 3 4 4 4 4 4 4 3 3 3 3 2 2 2 2 2 2 2 2 2 2 2 2 2 3 3 3 3 4 4 4 4 5 5 5 5 6 6 6 6 6 6
5 4 4 4 3 2 3 3 3 3 2 2 2 2 2 3 2 2 2 2 2 2 2 2 2 2 2 2 2 2 2 2 2 3 3 3 3 4 4 4 4 4 5 5 5 5 5 5 5
4 4 3 3 2 2 2 2 2 2 2 2 1 2 2 2 2 2 2 2 2 2 1 1 1 1 1 1 1 1 1 2 2 2 2 3 3 3 3 4 4 4 4 4 4 5 5 5 5
3 3 2 1 1 2 2 1 2 1 2 2 1 1 1 2 2 1 1 1 1 1 1 1 1 1 1 1 1 1 1 1 2 2 2 2 2 3 3 3 3 3 4 4 4 4 4 4 4
2 2 2 2 1 2 2 2 1 1 1 1 1 1 1 1 1 1 1 1 1 1 0 0 0 0 0 0 0 1 1 1 1 1 1 2 2 2 3 3 3 3 3 3 3 3 4 4 4
2 2 2 2 2 1 1 1 1 0 0 1 1 1 1 1 1 1 1 0 0 0 0 0 0 0 0 0 0 0 0 0 1 1 1 1 1 2 2 2 2 2 2 3 3 3 3 3 3
2 1 1 0 -0 -0 0 0 1 1 0 -0 -0 -0 -0 0 0 0 0 -0 -0 -0 -0 -0 -0 -0 -0 0 0 0 0 0 0 0 0 1 1 1 1 1 2 2 2 2 2 2 2 2 3
1 1 -0 -0 1 0 1 0 0 0 -0 -1 -1 -1 -1 -1 -1 -1 -0 -0 -1 -1 -1 -0 -1 -1 -0 -0 -0 -0 -0 -0 -0 -0 0 0 0 0 1 1 1 1 2 2 2 2 2 2 2
0 0 -0 -1 -1 -0 -0 1 -0 -1 -1 -2 -2 -1 -1 -1 -1 -1 -1 -1 -1 -1 -1 -1 -1 -1 -1 -1 -1 -1 -1 -1 -0 -0 -0 -0 -0 0 0 1 1 1 1 1 1 1 1 1 2
-0 -0 -1 -0 -1 -2 -2 -0 -1 -2 -2 -2 -2 -2 -1 -1 -1 -1 -1 -1 -1 -2 -2 -2 -1 -1 -1 -1 -1 -1 -1 -1 -1 -1 -1 -0 -0 -0 0 0 1 1 1 1 1 1 1 1 1
Wind_Speed
14 10 2 4 5 4 2 3 1 2 1 1 3 6 6 4 2 4 2 2 3 2 4 6 8 8 8 9 9 9 9 9 9 9 9 9 9 8 9 9 10 11 11 11 12 12 13 14 14
8 4 5 5 5 2 3 3 3 3 3 3 4 5 5 4 3 4 1 1 4 4 5 6 8 8 8 8 9 9 9 9 9 8 8 8 8 8 8 8 9 10 10 10 11 11 12 13 13
6 2 4 4 4 6 5 3 4 2 2 3 3 4 3 3 3 2 0 2 5 5 6 6 8 9 8 8 8 8 8 9 9 8 7 8 8 8 8 8 8 9 10 10 11 11 12 12 12
3 5 5 4 3 4 4 3 3 3 2 4 4 4 3 3 1 1 1 4 5 5 6 6 8 8 8 7 7 7 7 8 8 8 7 7 7 8 7 8 8 8 9 10 10 10 11 11 11
4 4 3 1 3 2 2 2 3 3 2 2 4 4 2 2 4 4 3 4 5 4 6 7 8 8 8 8 7 7 7 7 7 7 7 6 7 7 7 7 8 8 8 9 10 10 10 10 10
4 4 3 4 4 2 1 1 3 3 2 2 4 4 2 1 4 3 4 4 4 4 5 6 7 7 8 8 8 8 7 7 6 6 6 7 6 6 6 6 7 7 7 9 10 10 9 9 10
4 4 4 4 3 3 2 1 3 3 2 2 4 5 3 0 1 3 3 4 4 5 5 6 6 6 7 7 8 8 8 7 7 6 6 6 6 5 5 5 6 7 7 8 9 9 9 9 9
4 4 2 2 4 4 1 1 2 3 2 1 4 6 4 3 1 3 4 5 5 5 5 5 6 6 6 6 7 7 8 8 7 7 7 6 6 4 4 5 5 6 7 7 8 9 9 9 9
4 4 3 4 5 4 1 2 1 2 4 3 1 3 4 5 4 5 4 4 5 5 4 5 5 5 5 5 5 6 7 7 7 6 6 6 6 4 3 4 5 6 6 7 8 9 9 8 8
4 4 5 3 3 3 2 2 3 3 2 1 2 2 4 6 5 5 3 2 3 4 3 4 4 5 5 4 5 5 4 5 5 5 5 5 5 4 3 4 5 5 5 6 7 8 8 8 7
3 5 3 2 1 2 3 1 2 5 3 5 6 6 7 5 5 5 4 3 2 1 2 3 3 4 4 4 4 4 3 4 4 4 4 4 5 4 4 4 4 4 5 5 6 7 6 6 6
2 1 2 2 1 1 2 3 2 4 6 5 8 9 8 7 6 6 5 3 2 1 2 2 3 4 4 4 3 3 3 3 3 3 3 3 4 4 4 3 3 3 3 4 5 4 5 6 6
2 2 1 1 1 0 1 2 3 4 4 4 7 8 9 8 6 4 4 3 3 2 1 1 2 3 3 3 2 2 2 2 3 3 2 3 3 2 3 3 3 3 3 4 3 3 4 5 5
1 1 1 2 2 1 1 2 1 5 4 6 7 7 7 7 6 4 4 3 3 2 1 1 2 2 3 3 2 2 2 2 2 2 2 3 3 3 2 2 3 2 2 3 3 3 3 4 4
2 1 3 2 2 1 2 3 5 6 5 6 6 6 6 5 5 5 5 4 3 2 1 1 1 2 2 2 2 2 2 2 2 2 2 3 3 3 3 2 2 2 2 3 3 4 4 3 4
2 2 3 4 3 2 3 7 6 5 7 6 6 5 6 5 5 4 4 4 3 2 1 0 1 1 2 2 2 2 2 2 2 2 2 3 3 3 3 1 1 2 2 3 3 3 3 3 3
2 2 4 5 3 2 4 8 6 4 6 6 6 6 6 5 4 3 4 4 3 3 2 1 0 0 0 1 2 2 2 2 2 2 2 2 2 3 3 2 1 2 2 2 3 3 4 4 3
4 4 4 6 3 2 5 9 9 5 6 7 7 6 6 6 6 4 4 3 3 2 2 1 1 1 0 1 1 1 1 1 2 2 1 1 2 2 3 2 1 2 2 1 2 2 3 3 4
3 4 6 7 3 3 8 11 11 7 5 7 7 7 7 6 4 3 3 2 2 1 1 1 2 2 2 1 1 1 1 1 0 1 1 1 1 2 2 1 1 2 2 2 2 3 3 3 3
3 4 5 5 3 3 6 10 9 6 6 8 8 7 6 4 2 2 1 1 2 2 2 2 3 3 3 3 2 2 2 1 1 0 0 0 1 1 1 1 1 2 3 2 2 3 3 2 3
4 4 4 4 5 3 3 7 5 3 2 3 3 4 4 5 4 3 2 2 1 2 3 3 3 3 3 2 1 1 0 0 1 1 1 1 1 1 1 1 2 2 3 3 3 3 4 4 2
5 3 3 2 2 4 1 5 6 4 3 2 2 2 2 2 3 3 2 2 2 3 3 3 3 3 3 3 3 4 3 3 3 2 2 2 2 2 2 2 2 3 3 4 4 3 4 4 4
4 2 2 2 2 3 2 3 7 3 4 5 4 3 2 2 2 3 3 3 3 3 3 3 4 3 3 3 4 4 3 3 2 2 2 2 2 3 3 2 3 3 3 4 5 4 4 4 4
0 3 3 3 3 3 4 4 6 3 5 4 3 3 2 1 1 1 2 2 2 2 3 3 4 4 4 4 4 5 5 4 3 3 3 3 2 2 3 3 3 3 4 5 5 5 5 5 3
3 4 4 5 3 6 2 4 7 5 3 3 3 3 2 1 1 2 2 3 3 3 4 4 4 4 4 4 4 5 5 6 6 5 5 4 3 3 4 4 3 4 4 5 5 5 5 5 5
1 4 4 4 5 5 3 5 5 2 3 2 1 2 1 2 2 3 4 4 4 4 4 4 4 4 4 5 5 5 5 5 5 5 5 5 5 5 4 4 4 5 5 5 5 4 5 5 5
2 2 3 3 1 4 6 6 5 1 4 5 5 3 3 3 3 4 4 4 4 4 4 4 4 4 4 5 4 5 5 5 5 5 5 4 4 4 5 5 5 5 6 6 6 5 5 5 5
1 3 4 3 2 5 6 4 4 4 4 4 4 5 5 4 4 5 4 5 4 4 4 4 4 4 4 4 5 5 5 5 5 5 6 5 5 5 6 6 5 5 6 6 6 5 6 6 5
2 2 3 2 3 4 4 6 3 3 3 3 4 5 4 4 5 5 5 5 5 5 5 4 4 4 3 4 4 4 5 5 5 5 6 6 6 6 6 6 6 6 6 7 6 6 7 7 6
3 4 5 3 4 4 3 7 2 1 2 2 4 5 5 5 5 5 5 6 6 6 6 5 4 4 4 4 4 4 4 4 5 5 5 5 5 6 6 6 6 6 6 7 8 8 7 8 8
Wind_Direction
332 334 49 57 61 61 219 259 203 129 98 76 82 91 103 100 113 141 151 103 86 74 58 64 58 66 69 65 62 60 56 58 63 65 67 70 76 87 88 94 97 96 94 95 99 101 101 99 97
333 351 53 64 103 152 254 249 193 183 169 139 70 72 77 74 64 101 100 57 82 74 66 60 59 64 69 68 66 62 59 56 58 65 68 73 77 82 91 89 98 99 97 96 98 100 103 101 99
334 36 80 86 135 181 203 214 189 165 91 101 78 53 82 91 83 112 165 88 82 72 65 59 61 60 64 68 66 64 62 58 56 60 69 73 79 82 88 89 95 98 99 99 99 100 103 101 101
45 47 58 91 191 213 193 196 178 142 69 51 103 77 60 47 91 125 107 84 85 71 66 65 62 59 59 65 68 65 65 63 58 55 62 72 79 83 87 86 92 98 99 102 104 102 101 101 103
60 79 82 122 220 231 222 185 137 127 130 74 102 112 89 15 81 94 83 78 88 70 63 69 63 59 59 62 64 64 66 65 59 55 52 62 74 83 86 89 90 97 102 102 103 102 99 100 103
58 73 116 206 214 220 245 172 126 100 116 97 100 118 136 70 77 88 81 67 74 84 69 65 65 61 57 57 60 59 63 68 63 59 51 50 59 79 84 89 94 99 107 111 108 104 99 95 97
109 111 168 190 197 225 232 154 129 132 114 141 132 126 150 134 70 91 82 72 74 78 68 54 57 63 58 52 53 56 58 58 60 57 50 47 44 65 87 88 95 102 108 116 116 110 102 97 94
123 115 151 191 195 225 225 121 111 131 149 112 123 144 182 214 146 96 82 70 61 65 62 56 48 49 53 55 57 55 57 53 50 50 42 40 38 50 87 91 94 108 112 121 119 113 107 99 96
91 92 188 207 195 212 165 123 56 70 102 80 91 160 174 155 124 91 70 54 47 41 39 50 49 44 47 58 60 54 53 50 44 43 40 37 32 40 80 89 94 102 116 126 123 116 109 101 98
89 155 208 210 180 178 175 159 159 114 109 114 68 69 123 137 131 119 109 91 57 34 27 39 46 49 50 51 52 54 50 46 41 39 38 41 37 38 66 87 93 98 110 123 127 118 111 100 98
131 177 193 182 180 169 172 181 164 150 201 199 179 164 151 147 148 148 146 143 140 99 34 29 45 56 60 59 54 49 41 42 43 38 39 40 41 36 50 67 76 88 98 106 117 110 100 95 97
131 206 179 192 191 169 186 172 178 188 212 193 173 161 160 163 172 171 165 156 143 113 46 24 46 57 58 64 61 58 48 46 39 36 47 58 51 39 41 61 61 73 84 90 96 90 92 91 96
173 212 211 193 115 182 182 207 207 230 217 163 148 154 168 176 181 175 160 150 135 105 61 29 38 56 54 63 64 55 51 46 38 40 46 74 68 49 45 60 60 62 83 93 92 90 91 88 91
188 168 247 258 235 265 203 258 203 240 185 160 160 169 177 178 174 160 151 153 144 132 111 44 27 63 62 60 58 60 51 43 48 47 51 78 82 66 52 58 53 52 78 108 116 118 113 107 101
80 45 318 257 216 219 129 280 226 215 162 167 178 181 183 185 177 176 174 168 163 164 151 115 32 61 68 60 64 56 55 58 58 47 63 76 83 82 60 63 67 47 91 109 109 108 103 109 105
62 45 299 269 196 194 158 248 248 194 168 186 195 195 193 196 190 182 169 161 159 155 152 167 33 37 58 50 51 58 53 60 57 52 66 73 86 96 80 69 83 58 94 109 130 138 126 125 118
36 266 261 280 215 182 196 243 253 197 182 202 206 204 201 197 197 193 179 168 163 163 162 146 114 17 65 53 50 53 56 56 54 56 61 58 78 96 92 65 66 89 84 104 140 146 147 144 134
234 243 255 258 253 221 234 252 263 247 216 219 214 209 205 203 208 201 188 174 166 167 172 181 184 282 231 98 56 40 35 43 48 47 46 56 72 95 95 66 76 114 113 113 136 145 143 151 150
201 219 254 260 256 235 246 260 264 254 229 223 220 213 214 219 206 183 176 166 159 161 185 214 214 231 212 211 227 259 297 301 327 41 50 81 83 97 109 105 99 128 148 159 149 147 143 148 145
213 244 265 285 305 263 269 271 264 244 225 217 215 215 211 209 191 181 179 177 195 202 218 247 240 236 220 213 224 223 231 249 235 293 358 146 126 126 141 129 168 153 159 158 147 144 157 161 153
246 229 251 275 317 310 301 294 270 267 235 229 217 205 203 195 192 197 202 213 218 237 238 256 259 246 229 225 209 198 203 282 273 272 266 253 203 181 170 168 176 172 173 178 174 169 155 169 179
258 255 262 280 327 284 36 287 281 278 297 264 252 222 211 205 190 201 208 230 242 256 261 270 267 246 233 217 201 196 204 223 233 235 250 258 223 195 189 183 180 182 183 185 184 176 173 170 179
237 288 275 248 203 297 255 223 284 305 278 274 260 238 228 208 194 209 225 235 255 262 262 273 267 248 238 222 210 206 213 223 223 223 238 247 232 205 187 181 180 186 185 180 180 184 181 177 180
341 21 28 43 76 272 225 192 276 257 251 271 273 266 249 225 232 246 272 280 282 276 268 272 259 254 242 229 218 213 211 211 214 220 222 237 242 223 201 191 195 196 187 185 184 190 190 188 184
56 69 13 347 340 254 235 204 251 266 263 238 247 257 264 266 278 274 276 272 274 275 265 260 248 249 237 226 226 224 218 213 214 215 217 224 230 234 222 204 209 205 197 191 184 192 197 194 191
206 142 164 228 251 284 287 232 254 288 319 327 299 283 315 313 300 290 278 271 274 278 271 252 251 255 239 226 228 229 224 223 224 219 218 222 226 225 215 209 214 205 197 194 187 195 201 194 196
154 192 174 156 280 281 269 284 305 356 6 10 9 6 331 313 312 308 302 292 286 285 279 256 253 261 251 236 234 233 224 227 227 223 222 224 230 223 208 213 219 209 198 192 189 203 206 196 196
134 145 104 134 224 271 285 275 261 299 310 333 341 331 320 326 329 319 309 302 296 288 285 275 253 253 256 243 237 240 227 227 228 225 224 222 225 222 210 217 218 211 200 193 193 207 203 198 201
144 157 159 169 187 200 269 273 231 248 276 286 298 307 309 316 320 322 319 312 312 314 308 296 278 266 261 254 249 239 234 232 228 225 228 226 226 219 215 212 212 210 204 198 202 208 197 200 204
188 192 160 181 246 208 225 268 275 244 290 288 302 316 321 323 321 322 325 330 331 325 316 306 296 283 269 258 253 248 244 236 228 229 231 222 224 218 211 209 207 209 208 203 205 208 202 203 205
Height
1508 1508 1510 1512 1516 1527 1527 1521 1517 1516 1517 1517 1516 1516 1519 1523 1526 1533 1530 1528 1529 1530 1531 1531 1532 1532 1532 1533 1533 1533 1534 1535 1535 1536 1536 1536 1536 1537 1537 1538 1538 1538 1539 1539 1539 1540 1540 1540 1541
1507 1508 1511 1511 1522 1532 1528 1520 1517 1515 1516 1516 1517 1518 1520 1523 1525 1527 1527 1528 1529 1529 1530 1530 1531 1531 1532 1532 1532 1533 1533 1534 1534 1535 1536 1536 1536 1537 1537 1538 1538 1539 1539 1539 1540 1540 1541 1541 1541
1507 1508 1510 1514 1523 1527 1522 1517 1516 1515 1516 1516 1518 1519 1522 1524 1525 1526 1527 1528 1528 1529 1529 1530 1530 1530 1531 1531 1532 1532 1532 1533 1534 1534 1535 1536 1536 1536 1537 1538 1538 1539 1539 1540 1540 1541 1541 1542 1542
1507 1509 1511 1518 1521 1519 1516 1515 1514 1515 1515 1516 1517 1521 1523 1526 1526 1526 1527 1527 1528 1528 1529 1529 1529 1530 1530 1530 1530 1531 1531 1532 1532 1533 1534 1535 1535 1536 1536 1537 1538 1538 1539 1540 1540 1541 1541 1542 1543
1507 1508 1516 1522 1520 1517 1515 1514 1514 1514 1515 1517 1517 1521 1524 1526 1525 1525 1526 1527 1527 1527 1528 1528 1528 1529 1529 1529 1529 1529 1530 1531 1531 1532 1533 1534 1534 1535 1535 1536 1537 1538 1539 1539 1540 1541 1542 1542 1543
1507 1509 1521 1524 1519 1516 1515 1514 1514 1515 1516 1517 1518 1521 1523 1525 1524 1525 1525 1526 1526 1526 1526 1526 1527 1527 1527 1527 1527 1528 1529 1529 1530 1531 1531 1532 1533 1534 1534 1535 1536 1537 1538 1539 1540 1541 1542 1542 1543
1508 1513 1519 1519 1519 1517 1515 1514 1515 1515 1516 1518 1518 1520 1522 1523 1524 1524 1524 1525 1525 1525 1525 1525 1525 1525 1526 1526 1526 1526 1527 1527 1528 1529 1530 1531 1531 1532 1533 1534 1535 1536 1537 1538 1539 1540 1541 1542 1543
1507 1513 1517 1519 1517 1516 1514 1514 1514 1515 1516 1518 1518 1519 1520 1522 1522 1523 1524 1524 1524 1524 1524 1523 1523 1524 1524 1524 1524 1525 1525 1526 1526 1527 1528 1529 1530 1531 1532 1533 1534 1535 1536 1537 1538 1539 1540 1541 1542
1507 1517 1520 1516 1515 1514 1513 1514 1515 1515 1515 1516 1517 1517 1518 1520 1521 1521 1521 1522 1522 1522 1523 1522 1522 1522 1522 1522 1523 1523 1523 1524 1525 1525 1526 1527 1528 1529 1530 1531 1532 1533 1534 1536 1537 1538 1539 1540 1541
1507 1518 1515 1512 1511 1512 1512 1512 1513 1515 1515 1515 1516 1516 1517 1518 1518 1518 1519 1519 1519 1520 1520 1521 1520 1520 1521 1521 1521 1521 1521 1522 1523 1523 1524 1525 1526 1527 1528 1529 1530 1531 1533 1534 1535 1536 1538 1539 1540
1508 1513 1511 1510 1510 1510 1511 1512 1512 1513 1514 1512 1512 1513 1514 1516 1516 1516 1517 1517 1518 1518 1518 1519 1519 1518 1518 1518 1519 1519 1520 1520 1520 1521 1522 1523 1524 1525 1526 1527 1528 1530 1531 1532 1534 1535 1536 1537 1539
1509 1510 1509 1510 1510 1510 1510 1510 1511 1510 1509 1510 1510 1511 1512 1513 1513 1514 1515 1515 1516 1516 1516 1516 1517 1516 1516 1516 1516 1517 1517 1518 1518 1519 1520 1521 1522 1522 1524 1524 1526 1527 1529 1530 1531 1533 1534 1536 1537
1509 1510 1510 1509 1509 1509 1509 1509 1509 1508 1507 1508 1509 1509 1510 1511 1511 1512 1513 1513 1513 1513 1513 1513 1514 1514 1514 1514 1514 1514 1515 1516 1516 1516 1517 1518 1519 1520 1521 1522 1523 1525 1527 1528 1529 1530 1532 1534 1536
1509 1509 1509 1509 1509 1509 1509 1509 1508 1504 1505 1506 1507 1507 1508 1509 1509 1509 1510 1510 1510 1510 1510 1511 1511 1511 1511 1511 1511 1512 1512 1513 1513 1514 1515 1516 1516 1517 1518 1519 1521 1522 1524 1526 1527 1529 1530 1531 1533
1509 1511 1510 1508 1508 1508 1509 1509 1505 1501 1503 1504 1504 1505 1506 1506 1507 1506 1507 1507 1508 1508 1508 1508 1508 1508 1508 1508 1508 1509 1510 1510 1511 1511 1512 1512 1513 1514 1515 1516 1518 1520 1521 1523 1525 1526 1528 1530 1531
1511 1513 1514 1507 1507 1507 1511 1508 1500 1500 1501 1501 1502 1503 1503 1504 1504 1504 1505 1505 1505 1505 1505 1505 1505 1505 1505 1505 1505 1506 1506 1507 1507 1508 1509 1509 1510 1511 1513 1514 1515 1517 1518 1520 1521 1523 1525 1527 1529
1515 1517 1514 1508 1506 1506 1508 1505 1498 1498 1499 1499 1499 1499 1500 1500 1501 1501 1502 1502 1502 1502 1502 1502 1502 1502 1502 1502 1502 1502 1503 1503 1504 1505 1505 1506 1508 1509 1510 1511 1512 1514 1515 1517 1518 1520 1522 1524 1526
1516 1516 1513 1509 1505 1506 1507 1502 1496 1496 1496 1496 1496 1496 1496 1496 1497 1498 1499 1499 1499 1499 1499 1499 1499 1499 1499 1499 1499 1499 1499 1500 1501 1501 1502 1503 1504 1506 1507 1508 1509 1511 1512 1514 1515 1517 1519 1521 1523
1510 1511 1511 1506 1504 1505 1504 1499 1494 1492 1493 1492 1492 1492 1493 1493 1494 1495 1495 1495 1496 1496 1495 1496 1496 1495 1495 1495 1495 1495 1495 1496 1497 1498 1499 1500 1501 1502 1504 1505 1506 1507 1509 1510 1512 1513 1515 1518 1520
1509 1510 1509 1505 1503 1504 1503 1498 1492 1489 1488 1487 1487 1488 1488 1489 1490 1490 1491 1491 1492 1492 1492 1492 1492 1492 1492 1492 1492 1492 1492 1492 1493 1494 1495 1497 1498 1499 1500 1502 1503 1504 1506 1507 1509 1510 1512 1514 1516
1508 1510 1508 1507 1505 1503 1504 1497 1491 1486 1485 1485 1485 1485 1485 1485 1486 1487 1487 1488 1488 1488 1489 1488 1488 1488 1488 1488 1488 1488 1489 1489 1490 1491 1492 1493 1494 1496 1497 1498 1499 1500 1502 1504 1505 1507 1508 1510 1513
1508 1506 1506 1506 1509 1510 1508 1508 1492 1489 1486 1484 1483 1483 1483 1484 1484 1484 1484 1484 1484 1485 1485 1485 1484 1484 1484 1484 1484 1484 1484 1484 1485 1487 1488 1490 1491 1492 1493 1494 1496 1497 1499 1500 1501 1503 1505 1507 1509
1507 1505 1506 1506 1509 1512 1510 1511 1496 1490 1487 1483 1482 1481 1481 1482 1482 1482 1482 1481 1482 1482 1481 1481 1480 1479 1480 1480 1480 1480 1481 1481 1482 1484 1485 1486 1487 1488 1490 1491 1492 1494 1495 1496 1498 1499 1502 1503 1505
1506 1507 1508 1512 1514 1513 1507 1510 1499 1492 1486 1483 1481 1481 1480 1480 1480 1480 1479 1479 1479 1478 1478 1477 1475 1475 1475 1475 1475 1476 1476 1477 1478 1479 1480 1482 1483 1484 1485 1487 1489 1490 1491 1492 1494 1496 1498 1499 1501
1508 1512 1517 1518 1521 1511 1504 1504 1497 1486 1484 1482 1481 1480 1479 1478 1478 1478 1477 1476 1475 1474 1473 1472 1471 1470 1470 1471 1471 1471 1472 1473 1474 1475 1476 1477 1478 1479 1481 1483 1484 1486 1487 1489 1490 1492 1494 1495 1497
1509 1511 1517 1519 1518 1511 1504 1502 1491 1486 1483 1481 1480 1479 1478 1477 1476 1476 1475 1474 1472 1470 1468 1467 1467 1466 1466 1466 1467 1468 1468 1469 1470 1471 1472 1473 1474 1475 1477 1479 1480 1481 1483 1484 1486 1488 1489 1491 1493
1509 1513 1513 1519 1521 1521 1507 1500 1489 1484 1483 1481 1480 1478 1477 1476 1475 1474 1473 1471 1469 1467 1465 1464 1463 1463 1462 1463 1463 1463 1464 1465 1466 1466 1468 1469 1470 1471 1473 1474 1476 1477 1478 1480 1481 1483 1485 1487 1489
1509 1511 1517 1520 1519 1517 1507 1502 1494 1486 1485 1483 1481 1479 1477 1475 1474 1473 1472 1469 1467 1465 1463 1461 1461 1460 1459 1459 1459 1459 1460 1461 1461 1462 1463 1464 1465 1467 1468 1470 1471 1472 1473 1475 1477 1478 1480 1482 1484
1511 1512 1513 1518 1519 1519 1513 1500 1489 1488 1486 1484 1482 1480 1478 1475 1473 1471 1469 1467 1465 1462 1460 1458 1457 1456 1456 1456 1456 1456 1456 1456 1457 1458 1459 1460 1461 1462 1463 1465 1466 1467 1468 1470 1472 1473 1475 1477 1480
1508 1508 1512 1516 1517 1519 1518 1503 1486 1486 1484 1483 1481 1479 1477 1475 1473 1470 1468 1465 1462 1460 1458 1455 1454 1453 1453 1452 1452 1452 1452 1452 1453 1453 1454 1455 1456 1457 1458 1460 1461 1462 1463 1465 1467 1468 1470 1473 1475